Stündliche Wetter Abrest

Heute, 23 Juni, Mittwoch

Zeit Temperatur Niederschläge Wind Luftdruck Luftfeuchtigkeit
00:00 +13°C° 0.1 mm 1 m/S 733 mmHg 94%
01:00 +13°C° 0 mm 1 m/S 733 mmHg 95%
02:00 +13°C° 0 mm 1 m/S 733 mmHg 95%
03:00 +12°C° 0 mm 1 m/S 733 mmHg 95%
04:00 +13°C° 0 mm 1 m/S 733 mmHg 94%
05:00 +14°C° 0 mm 1 m/S 733 mmHg 93%
06:00 +14°C° 0 mm 0 m/S 733 mmHg 92%
07:00 +15°C° 0 mm 0 m/S 734 mmHg 85%
08:00 +19°C° 0 mm 1 m/S 734 mmHg 78%
09:00 +21°C° 0 mm 1 m/S 734 mmHg 71%
10:00 +21°C° 0.3 mm 1 m/S 734 mmHg 71%
11:00 +21°C° 0.3 mm 1 m/S 734 mmHg 72%
12:00 +22°C° 0.3 mm 1 m/S 734 mmHg 72%
13:00 +20°C° 1 mm 2 m/S 734 mmHg 76%
14:00 +20°C° 1 mm 2 m/S 734 mmHg 79%
15:00 +20°C° 1 mm 2 m/S 734 mmHg 83%
16:00 +19°C° 1.2 mm 2 m/S 734 mmHg 86%
17:00 +18°C° 1.2 mm 2 m/S 734 mmHg 90%
18:00 +18°C° 1.2 mm 1 m/S 734 mmHg 93%
19:00 +18°C° 1.7 mm 1 m/S 734 mmHg 94%
20:00 +16°C° 1.7 mm 1 m/S 735 mmHg 96%
21:00 +16°C° 1.7 mm 1 m/S 735 mmHg 97%
22:00 +15°C° 0.3 mm 1 m/S 735 mmHg 97%
23:00 +15°C° 0.3 mm 1 m/S 735 mmHg 98%

Morgen, 24 Juni, Donnerstag

Zeit Temperatur Niederschläge Wind Luftdruck Luftfeuchtigkeit
00:00 +15°C° 0.3 mm 1 m/S 735 mmHg 98%
01:00 +15°C° 0.1 mm 1 m/S 734 mmHg 98%
02:00 +14°C° 0.1 mm 1 m/S 734 mmHg 98%
03:00 +14°C° 0.1 mm 1 m/S 734 mmHg 99%
04:00 +14°C° 0.7 mm 1 m/S 734 mmHg 99%
05:00 +15°C° 0.7 mm 1 m/S 734 mmHg 99%
06:00 +15°C° 0.7 mm 1 m/S 734 mmHg 98%
07:00 +15°C° 1.7 mm 1 m/S 734 mmHg 98%
08:00 +15°C° 1.7 mm 1 m/S 735 mmHg 98%
09:00 +15°C° 1.7 mm 1 m/S 735 mmHg 98%
10:00 +15°C° 1.5 mm 2 m/S 735 mmHg 97%
11:00 +15°C° 1.5 mm 2 m/S 735 mmHg 96%
12:00 +16°C° 1.5 mm 2 m/S 736 mmHg 95%
13:00 +16°C° 0.6 mm 2 m/S 736 mmHg 93%
14:00 +16°C° 0.6 mm 2 m/S 736 mmHg 91%
15:00 +17°C° 0.6 mm 2 m/S 736 mmHg 90%
16:00 +17°C° 0.4 mm 2 m/S 736 mmHg 90%
17:00 +17°C° 0.4 mm 2 m/S 736 mmHg 90%
18:00 +18°C° 0.4 mm 1 m/S 736 mmHg 90%
19:00 +15°C° 0 mm 1 m/S 737 mmHg 92%
20:00 +14°C° 0 mm 1 m/S 737 mmHg 93%
21:00 +13°C° 0 mm 1 m/S 737 mmHg 95%
22:00 +12°C° 0 mm 0 m/S 737 mmHg 95%
23:00 +11°C° 0 mm 0 m/S 737 mmHg 95%

übermorgen, 25 Juni, Freitag

Zeit Temperatur Niederschläge Wind Luftdruck Luftfeuchtigkeit
00:00 +11°C° 0 mm 0 m/S 737 mmHg 95%
01:00 +11°C° 0 mm 0 m/S 737 mmHg 95%
02:00 +11°C° 0 mm 0 m/S 737 mmHg 95%
03:00 +11°C° 0 mm 0 m/S 737 mmHg 95%
04:00 +11°C° 0 mm 0 m/S 737 mmHg 95%
05:00 +12°C° 0 mm 0 m/S 737 mmHg 94%
06:00 +13°C° 0 mm 0 m/S 737 mmHg 93%
07:00 +14°C° 0.1 mm 0 m/S 737 mmHg 88%
08:00 +16°C° 0.1 mm 1 m/S 737 mmHg 83%
09:00 +18°C° 0.1 mm 1 m/S 736 mmHg 78%
10:00 +20°C° 0.1 mm 1 m/S 736 mmHg 71%
11:00 +21°C° 0.1 mm 1 m/S 736 mmHg 63%
12:00 +22°C° 0.1 mm 1 m/S 736 mmHg 56%
13:00 +22°C° 0 mm 1 m/S 736 mmHg 56%
14:00 +22°C° 0 mm 1 m/S 736 mmHg 55%
15:00 +23°C° 0 mm 1 m/S 735 mmHg 55%
16:00 +22°C° 0 mm 1 m/S 735 mmHg 59%
17:00 +22°C° 0 mm 1 m/S 735 mmHg 63%
18:00 +20°C° 0 mm 0 m/S 734 mmHg 67%
19:00 +18°C° 0 mm 0 m/S 735 mmHg 73%
20:00 +18°C° 0 mm 1 m/S 735 mmHg 78%
21:00 +15°C° 0 mm 1 m/S 735 mmHg 84%
22:00 +14°C° 0 mm 1 m/S 734 mmHg 85%
23:00 +13°C° 0 mm 1 m/S 734 mmHg 86%

26 Juni, Samstag

Zeit Temperatur Niederschläge Wind Luftdruck Luftfeuchtigkeit
00:00 +13°C° 0 mm 1 m/S 734 mmHg 87%
01:00 +13°C° 0 mm 1 m/S 734 mmHg 88%
02:00 +12°C° 0 mm 1 m/S 734 mmHg 89%
03:00 +12°C° 0 mm 1 m/S 733 mmHg 89%
04:00 +13°C° 0 mm 1 m/S 733 mmHg 86%
05:00 +14°C° 0 mm 1 m/S 733 mmHg 82%
06:00 +15°C° 0 mm 1 m/S 733 mmHg 79%
07:00 +19°C° 0 mm 1 m/S 733 mmHg 72%
08:00 +21°C° 0 mm 1 m/S 733 mmHg 65%
09:00 +23°C° 0 mm 1 m/S 733 mmHg 59%
10:00 +24°C° 0 mm 1 m/S 733 mmHg 53%
11:00 +26°C° 0 mm 2 m/S 733 mmHg 48%
12:00 +27°C° 0 mm 2 m/S 732 mmHg 43%
13:00 +28°C° 0 mm 2 m/S 732 mmHg 42%
14:00 +28°C° 0 mm 1 m/S 732 mmHg 41%
15:00 +29°C° 0 mm 1 m/S 731 mmHg 40%
16:00 +28°C° 0 mm 1 m/S 731 mmHg 48%
17:00 +27°C° 0 mm 1 m/S 730 mmHg 56%
18:00 +26°C° 0 mm 1 m/S 730 mmHg 64%
19:00 +24°C° 0 mm 1 m/S 730 mmHg 69%
20:00 +22°C° 0 mm 1 m/S 730 mmHg 75%
21:00 +19°C° 0 mm 2 m/S 730 mmHg 80%
22:00 +19°C° 0.4 mm 2 m/S 730 mmHg 84%
23:00 +18°C° 0.4 mm 2 m/S 730 mmHg 88%

27 Juni, Sonntag

Zeit Temperatur Niederschläge Wind Luftdruck Luftfeuchtigkeit
00:00 +18°C° 0.4 mm 2 m/S 731 mmHg 91%
01:00 +18°C° 0.1 mm 2 m/S 730 mmHg 92%
02:00 +18°C° 0.1 mm 1 m/S 730 mmHg 94%
03:00 +18°C° 0.1 mm 1 m/S 730 mmHg 95%
04:00 +16°C° 0.2 mm 0 m/S 730 mmHg 95%
05:00 +16°C° 0.2 mm 0 m/S 730 mmHg 96%
06:00 +16°C° 0.2 mm 0 m/S 730 mmHg 96%
07:00 +18°C° 1.3 mm 1 m/S 730 mmHg 97%
08:00 +18°C° 1.3 mm 1 m/S 730 mmHg 97%
09:00 +18°C° 1.3 mm 1 m/S 730 mmHg 97%
10:00 +18°C° 1.2 mm 1 m/S 730 mmHg 97%
11:00 +19°C° 1.2 mm 1 m/S 730 mmHg 96%
12:00 +18°C° 1.2 mm 2 m/S 730 mmHg 96%
13:00 +17°C° 2.3 mm 3 m/S 730 mmHg 96%
14:00 +15°C° 2.3 mm 4 m/S 730 mmHg 96%
15:00 +14°C° 2.3 mm 4 m/S 731 mmHg 96%
16:00 +13°C° 2.2 mm 4 m/S 731 mmHg 96%
17:00 +12°C° 2.2 mm 3 m/S 732 mmHg 96%
18:00 +12°C° 2.2 mm 2 m/S 732 mmHg 96%
19:00 +10°C° 0.1 mm 2 m/S 733 mmHg 96%
20:00 +10°C° 0.1 mm 2 m/S 733 mmHg 95%
21:00 +10°C° 0.1 mm 1 m/S 733 mmHg 95%
22:00 +10°C° 0 mm 1 m/S 733 mmHg 95%
23:00 +9°C° 0 mm 2 m/S 733 mmHg 95%

28 Juni, Montag

Zeit Temperatur Niederschläge Wind Luftdruck Luftfeuchtigkeit
00:00 +8°C° 0 mm 2 m/S 733 mmHg 94%
01:00 +9°C° 0 mm 1 m/S 733 mmHg 94%
02:00 +9°C° 0 mm 1 m/S 733 mmHg 94%
03:00 +8°C° 0 mm 1 m/S 732 mmHg 94%
04:00 +9°C° 0.3 mm 1 m/S 732 mmHg 95%
05:00 +10°C° 0.3 mm 1 m/S 732 mmHg 95%
06:00 +10°C° 0.3 mm 1 m/S 732 mmHg 95%
07:00 +11°C° 0.2 mm 1 m/S 732 mmHg 92%
08:00 +12°C° 0.2 mm 2 m/S 732 mmHg 88%
09:00 +13°C° 0.2 mm 2 m/S 732 mmHg 84%
10:00 +14°C° 0.5 mm 2 m/S 732 mmHg 86%
11:00 +13°C° 0.5 mm 3 m/S 733 mmHg 87%
12:00 +13°C° 0.5 mm 3 m/S 733 mmHg 89%
13:00 +13°C° 0.3 mm 3 m/S 733 mmHg 84%
14:00 +14°C° 0.3 mm 3 m/S 733 mmHg 80%
15:00 +16°C° 0.3 mm 3 m/S 734 mmHg 76%
16:00 +14°C° 0.2 mm 3 m/S 734 mmHg 81%
17:00 +14°C° 0.2 mm 2 m/S 734 mmHg 87%
18:00 +13°C° 0.2 mm 1 m/S 734 mmHg 92%
19:00 +13°C° 0.2 mm 1 m/S 734 mmHg 93%
20:00 +12°C° 0.2 mm 1 m/S 734 mmHg 95%
21:00 +12°C° 0.2 mm 1 m/S 734 mmHg 96%
22:00 +12°C° 0.5 mm 1 m/S 733 mmHg 96%
23:00 +13°C° 0.5 mm 1 m/S 733 mmHg 96%
Mehr zeigen

Wir brauchen deine Erlaubnis

Meteoprog und unser Service Anbieter werden persönliche Daten aufbewahren, so wie Cookies, Geräte Bezeichnung oder ähnliche Technologien von deinem Gerät und Prozess, so wie Persönliche Daten Inhalte und Werbungen, genauso wie social Media und den Verkehr zu analysieren.

  • Aufbewahrung und/oder Zugang zu deiner Geräte Informationen.

    Cookies, Geräte Bezeichnung oder andere Informationen, können aufbewahrt oder Zugang zu deinem Gerät erhalten, für den Grund, der oben angegeben wird.

  • Personalisierte Werbung und Inhalte, Messungen, Einblick in das Publikum und Produkt Entwicklung.

    Werbungen und Inhalte können personalisiert werden, basierend auf ein Profil. Mehr Daten können besser personalisierte Werbungen und Inhalte hinzufügen. Werbung und Inhalte können gezeigt und gemessen werden. Einblicke über das Publikum, welche die Werbung gesehen haben und den Inhalt, können abgeleitet werden. So wie Daten können genutzt werden, um es zu verbessern oder die Benutzer Erfahrung zu verbessern das System und die Software.

Wenn du “Ich stimme zu” klickst, erlaubst du uns, die Cookies zu benutzen die Geräte Bezeichnung, den Web oder ähnliche Technologien zu benutzen. Deine Settings, können in deinem Gerät bei deinem Browser geändert werden.

Für den bestimmten Zweck, berechtigten Interessen beruhen darauf, mehr als auf den Inhalt. Du kannst mehr darüber in unseren Privaten und Cookie Politik lesen.